Time,TemperatureF,DewpointF,PressureIn,WindDirection,WindDirectionDegrees,WindSpeedMPH,WindSpeedGustMPH,Humidity,HourlyPrecipIn,Conditions,Clouds,dailyrainin,SoftwareType,DateUTC
2013-01-06 00:00:00,19.9,5.1,30.39,WNW,286,0.0,0.0,52,0.00,CLR,CLR,0.00,WeatherDisplay:10.34,2013-01-06 05:00:00,
2013-01-06 00:02:00,19.9,5.1,30.39,WNW,286,0.0,0.0,52,0.00,CLR,CLR,0.00,WeatherDisplay:10.34,2013-01-06 05:02:00,
2013-01-06 00:03:00,19.9,5.5,30.39,WNW,286,0.0,0.0,53,0.00,CLR,CLR,0.00,WeatherDisplay:10.34,2013-01-06 05:03:00,
2013-01-06 00:06:00,19.9,5.5,30.39,WNW,286,0.0,0.0,53,0.00,CLR,CLR,0.00,WeatherDisplay:10.34,2013-01-06 05:06:00,
2013-01-06 00:08:00,19.9,5.5,30.39,WNW,286,0.0,0.0,53,0.00,CLR,CLR,0.00,WeatherDisplay:10.34,2013-01-06 05:08:00,
2013-01-06 00:13:00,19.8,4.9,30.39,WNW,286,3.0,0.0,52,0.00,CLR,CLR,0.00,WeatherDisplay:10.34,2013-01-06 05:13:00,
2013-01-06 00:18:00,19.4,4.6,30.39,WNW,286,0.0,0.0,52,0.00,CLR,CLR,0.00,WeatherDisplay:10.34,2013-01-06 05:18:00,
2013-01-06 00:23:00,19.4,4.6,30.39,WNW,286,0.0,0.0,52,0.00,CLR,CLR,0.00,WeatherDisplay:10.34,2013-01-06 05:23:00,
2013-01-06 00:28:00,19.0,4.3,30.39,WNW,286,0.0,0.0,52,0.00,CLR,CLR,0.00,WeatherDisplay:10.34,2013-01-06 05:28:00,
2013-01-06 00:33:00,19.2,4.9,30.39,WNW,286,0.0,0.0,53,0.00,CLR,CLR,0.00,WeatherDisplay:10.34,2013-01-06 05:33:00,
2013-01-06 00:38:00,19.0,4.7,30.39,WNW,286,0.0,0.0,53,0.00,CLR,CLR,0.00,WeatherDisplay:10.34,2013-01-06 05:38:00,
2013-01-06 00:43:00,19.0,4.7,30.39,WNW,286,0.0,0.0,53,0.00,CLR,CLR,0.00,WeatherDisplay:10.34,2013-01-06 05:43:00,
2013-01-06 00:48:00,18.9,4.5,30.39,WNW,286,0.0,0.0,53,0.00,CLR,CLR,0.00,WeatherDisplay:10.34,2013-01-06 05:48:00,
2013-01-06 00:53:00,18.5,3.8,30.36,WNW,286,0.0,0.0,52,0.00,CLR,CLR,0.00,WeatherDisplay:10.34,2013-01-06 05:53:00,
2013-01-06 00:58:00,18.5,4.2,30.36,WNW,286,0.0,0.0,53,0.00,CLR,CLR,0.00,WeatherDisplay:10.34,2013-01-06 05:58:00,
2013-01-06 01:03:00,18.5,4.2,30.36,WNW,286,0.0,0.0,53,0.00,CLR,CLR,0.00,WeatherDisplay:10.34,2013-01-06 06:03:00,
2013-01-06 01:08:00,18.7,4.4,30.36,WNW,286,0.0,0.0,53,0.00,CLR,CLR,0.00,WeatherDisplay:10.34,2013-01-06 06:08:00,
2013-01-06 01:13:00,18.7,4.4,30.36,WNW,286,0.0,0.0,53,0.00,CLR,CLR,0.00,WeatherDisplay:10.34,2013-01-06 06:13:00,
2013-01-06 01:18:00,18.9,4.5,30.36,WNW,286,0.0,0.0,53,0.00,CLR,CLR,0.00,WeatherDisplay:10.34,2013-01-06 06:18:00,
2013-01-06 01:23:00,18.9,4.5,30.36,WNW,286,0.0,0.0,53,0.00,CLR,CLR,0.00,WeatherDisplay:10.34,2013-01-06 06:23:00,
2013-01-06 01:28:00,18.9,4.5,30.36,WNW,286,0.0,0.0,53,0.00,CLR,CLR,0.00,WeatherDisplay:10.34,2013-01-06 06:28:00,
2013-01-06 01:33:00,19.0,4.7,30.36,WNW,286,0.0,0.0,53,0.00,CLR,CLR,0.00,WeatherDisplay:10.34,2013-01-06 06:33:00,
2013-01-06 01:38:00,19.0,5.1,30.36,WNW,286,0.0,0.0,54,0.00,CLR,CLR,0.00,WeatherDisplay:10.34,2013-01-06 06:38:00,
2013-01-06 01:43:00,19.2,5.3,30.36,WNW,286,0.0,0.0,54,0.00,CLR,CLR,0.00,WeatherDisplay:10.34,2013-01-06 06:43:00,
2013-01-06 01:48:00,19.4,5.4,30.36,WNW,286,0.0,0.0,54,0.00,CLR,CLR,0.00,WeatherDisplay:10.34,2013-01-06 06:48:00,
2013-01-06 01:53:00,19.4,5.4,30.39,WNW,286,0.0,0.0,54,0.00,CLR,CLR,0.00,WeatherDisplay:10.34,2013-01-06 06:53:00,
2013-01-06 01:59:00,19.6,5.6,30.39,WNW,286,0.0,0.0,54,0.00,CLR,CLR,0.00,WeatherDisplay:10.34,2013-01-06 06:59:00,
2013-01-06 02:05:00,19.6,5.6,30.36,WNW,286,0.0,0.0,54,0.00,CLR,CLR,0.00,WeatherDisplay:10.34,2013-01-06 07:05:00,
2013-01-06 02:10:00,19.6,5.6,30.36,WNW,286,0.0,0.0,54,0.00,CLR,CLR,0.00,WeatherDisplay:10.34,2013-01-06 07:10:00,
2013-01-06 02:15:00,19.6,5.6,30.36,WNW,286,0.0,0.0,54,0.00,CLR,CLR,0.00,WeatherDisplay:10.34,2013-01-06 07:15:00,
2013-01-06 02:20:00,19.6,5.6,30.36,WNW,286,0.0,0.0,54,0.00,CLR,CLR,0.00,WeatherDisplay:10.34,2013-01-06 07:20:00,
2013-01-06 02:25:00,19.6,5.6,30.36,WNW,286,0.0,3.0,54,0.00,CLR,CLR,0.00,WeatherDisplay:10.34,2013-01-06 07:25:00,
2013-01-06 02:31:00,19.8,5.8,30.36,WNW,286,0.0,2.0,54,0.00,CLR,CLR,0.00,WeatherDisplay:10.34,2013-01-06 07:31:00,
2013-01-06 02:36:00,19.8,5.8,30.36,WNW,286,0.0,0.0,54,0.00,CLR,CLR,0.00,WeatherDisplay:10.34,2013-01-06 07:36:00,
2013-01-06 02:42:00,19.9,5.9,30.36,WNW,286,0.0,0.0,54,0.00,CLR,CLR,0.00,WeatherDisplay:10.34,2013-01-06 07:42:00,
2013-01-06 02:47:00,20.1,6.1,30.36,WNW,286,0.0,0.0,54,0.00,CLR,CLR,0.00,WeatherDisplay:10.34,2013-01-06 07:47:00,
2013-01-06 02:52:00,19.9,5.9,30.36,WNW,286,0.0,0.0,54,0.00,CLR,CLR,0.00,WeatherDisplay:10.34,2013-01-06 07:52:00,
2013-01-06 02:57:00,19.9,5.9,30.36,WNW,286,0.0,0.0,54,0.00,CLR,CLR,0.00,WeatherDisplay:10.34,2013-01-06 07:57:00,
2013-01-06 03:02:00,20.1,6.5,30.36,WNW,286,0.0,0.0,55,0.00,CLR,CLR,0.00,WeatherDisplay:10.34,2013-01-06 08:02:00,
2013-01-06 03:07:00,20.3,6.3,30.33,WNW,286,0.0,0.0,54,0.00,CLR,CLR,0.00,WeatherDisplay:10.34,2013-01-06 08:07:00,
2013-01-06 03:12:00,20.3,6.7,30.33,WNW,286,0.0,0.0,55,0.00,CLR,CLR,0.00,WeatherDisplay:10.34,2013-01-06 08:12:00,
2013-01-06 03:17:00,20.3,6.3,30.33,WNW,286,0.0,0.0,54,0.00,CLR,CLR,0.00,WeatherDisplay:10.34,2013-01-06 08:17:00,
2013-01-06 03:22:00,20.5,6.9,30.33,WNW,286,0.0,0.0,55,0.00,CLR,CLR,0.00,WeatherDisplay:10.34,2013-01-06 08:22:00,
2013-01-06 03:27:00,20.7,7.0,30.33,WNW,286,0.0,0.0,55,0.00,CLR,CLR,0.00,WeatherDisplay:10.34,2013-01-06 08:27:00,
2013-01-06 03:32:00,20.7,7.0,30.33,WNW,286,0.0,0.0,55,0.00,CLR,CLR,0.00,WeatherDisplay:10.34,2013-01-06 08:32:00,
2013-01-06 03:37:00,20.8,7.2,30.33,WNW,286,0.0,0.0,55,0.00,CLR,CLR,0.00,WeatherDisplay:10.34,2013-01-06 08:37:00,
2013-01-06 03:42:00,20.8,7.2,30.33,WNW,286,0.0,0.0,55,0.00,CLR,CLR,0.00,WeatherDisplay:10.34,2013-01-06 08:42:00,
2013-01-06 03:47:00,20.8,7.2,30.33,WNW,286,0.0,0.0,55,0.00,CLR,CLR,0.00,WeatherDisplay:10.34,2013-01-06 08:47:00,
2013-01-06 03:53:00,21.0,7.4,30.33,WNW,286,0.0,0.0,55,0.00,CLR,CLR,0.00,WeatherDisplay:10.34,2013-01-06 08:53:00,
2013-01-06 03:58:00,21.0,7.4,30.33,WNW,286,0.0,0.0,55,0.00,CLR,CLR,0.00,WeatherDisplay:10.34,2013-01-06 08:58:00,
2013-01-06 04:03:00,21.2,7.5,30.33,WNW,286,0.0,0.0,55,0.00,CLR,CLR,0.00,WeatherDisplay:10.34,2013-01-06 09:03:00,
2013-01-06 04:08:00,21.2,7.9,30.33,WNW,286,0.0,0.0,56,0.00,CLR,CLR,0.00,WeatherDisplay:10.34,2013-01-06 09:08:00,
2013-01-06 04:13:00,21.2,7.9,30.33,WNW,286,0.0,0.0,56,0.00,CLR,CLR,0.00,WeatherDisplay:10.34,2013-01-06 09:13:00,
2013-01-06 04:18:00,21.2,7.9,30.33,WNW,286,0.0,0.0,56,0.00,CLR,CLR,0.00,WeatherDisplay:10.34,2013-01-06 09:18:00,
2013-01-06 04:23:00,21.2,7.9,30.30,WNW,286,0.0,0.0,56,0.00,CLR,CLR,0.00,WeatherDisplay:10.34,2013-01-06 09:23:00,
2013-01-06 04:28:00,21.2,7.9,30.30,WNW,286,0.0,0.0,56,0.00,CLR,CLR,0.00,WeatherDisplay:10.34,2013-01-06 09:28:00,
2013-01-06 04:33:00,21.2,7.9,30.30,WNW,286,0.0,0.0,56,0.00,CLR,CLR,0.00,WeatherDisplay:10.34,2013-01-06 09:33:00,
2013-01-06 04:38:00,21.4,8.1,30.30,WNW,286,0.0,0.0,56,0.00,CLR,CLR,0.00,WeatherDisplay:10.34,2013-01-06 09:38:00,
2013-01-06 04:43:00,21.4,8.1,30.30,WNW,286,0.0,0.0,56,0.00,CLR,CLR,0.00,WeatherDisplay:10.34,2013-01-06 09:43:00,
2013-01-06 04:48:00,21.4,8.1,30.30,WNW,286,0.0,0.0,56,0.00,CLR,CLR,0.00,WeatherDisplay:10.34,2013-01-06 09:48:00,
2013-01-06 04:53:00,21.4,8.1,30.30,WNW,286,0.0,0.0,56,0.00,CLR,CLR,0.00,WeatherDisplay:10.34,2013-01-06 09:53:00,
2013-01-06 04:58:00,21.4,8.1,30.30,WNW,286,0.0,0.0,56,0.00,CLR,CLR,0.00,WeatherDisplay:10.34,2013-01-06 09:58:00,
2013-01-06 05:03:00,21.4,8.1,30.30,WNW,286,0.0,0.0,56,0.00,CLR,CLR,0.00,WeatherDisplay:10.34,2013-01-06 10:03:00,
2013-01-06 05:08:00,21.2,7.9,30.27,WNW,286,0.0,0.0,56,0.00,CLR,CLR,0.00,WeatherDisplay:10.34,2013-01-06 10:08:00,
2013-01-06 05:13:00,21.0,7.8,30.27,WNW,286,0.0,0.0,56,0.00,CLR,CLR,0.00,WeatherDisplay:10.34,2013-01-06 10:13:00,
2013-01-06 05:18:00,21.0,7.8,30.27,WNW,286,0.0,0.0,56,0.00,CLR,CLR,0.00,WeatherDisplay:10.34,2013-01-06 10:18:00,
2013-01-06 05:23:00,21.0,7.8,30.27,WNW,286,0.0,0.0,56,0.00,CLR,CLR,0.00,WeatherDisplay:10.34,2013-01-06 10:23:00,
2013-01-06 05:28:00,21.0,7.8,30.27,WNW,286,0.0,0.0,56,0.00,CLR,CLR,0.00,WeatherDisplay:10.34,2013-01-06 10:28:00,
2013-01-06 05:33:00,21.0,7.8,30.27,WNW,286,0.0,0.0,56,0.00,CLR,CLR,0.00,WeatherDisplay:10.34,2013-01-06 10:33:00,
2013-01-06 05:38:00,21.0,7.8,30.27,WNW,286,0.0,0.0,56,0.00,CLR,CLR,0.00,WeatherDisplay:10.34,2013-01-06 10:38:00,
2013-01-06 05:43:00,21.0,7.8,30.27,WNW,286,0.0,0.0,56,0.00,CLR,CLR,0.00,WeatherDisplay:10.34,2013-01-06 10:43:00,
2013-01-06 05:48:00,21.0,7.8,30.27,WNW,286,0.0,0.0,56,0.00,CLR,CLR,0.00,WeatherDisplay:10.34,2013-01-06 10:48:00,
2013-01-06 05:53:00,21.0,7.8,30.27,WNW,286,0.0,0.0,56,0.00,CLR,CLR,0.00,WeatherDisplay:10.34,2013-01-06 10:53:00,
2013-01-06 05:58:00,21.0,7.8,30.27,WNW,286,0.0,0.0,56,0.00,CLR,CLR,0.00,WeatherDisplay:10.34,2013-01-06 10:58:00,
2013-01-06 06:03:00,21.0,7.8,30.27,WNW,286,0.0,0.0,56,0.00,CLR,CLR,0.00,WeatherDisplay:10.34,2013-01-06 11:03:00,
2013-01-06 06:08:00,21.2,7.9,30.27,WNW,286,0.0,0.0,56,0.00,CLR,CLR,0.00,WeatherDisplay:10.34,2013-01-06 11:08:00,
2013-01-06 06:13:00,21.2,8.3,30.27,WNW,286,0.0,0.0,57,0.00,CLR,CLR,0.00,WeatherDisplay:10.34,2013-01-06 11:13:00,
2013-01-06 06:18:00,21.2,8.3,30.27,WNW,286,0.0,0.0,57,0.00,CLR,CLR,0.00,WeatherDisplay:10.34,2013-01-06 11:18:00,
2013-01-06 06:23:00,21.2,8.3,30.27,WNW,286,0.0,0.0,57,0.00,CLR,CLR,0.00,WeatherDisplay:10.34,2013-01-06 11:23:00,
2013-01-06 06:28:00,21.2,8.3,30.27,WNW,286,0.0,0.0,57,0.00,CLR,CLR,0.00,WeatherDisplay:10.34,2013-01-06 11:28:00,
2013-01-06 06:33:00,21.2,8.3,30.27,WNW,286,0.0,0.0,57,0.00,CLR,CLR,0.00,WeatherDisplay:10.34,2013-01-06 11:33:00,
2013-01-06 06:38:00,21.0,8.2,30.27,WNW,286,0.0,0.0,57,0.00,CLR,CLR,0.00,WeatherDisplay:10.34,2013-01-06 11:38:00,
2013-01-06 06:43:00,21.0,8.5,30.27,WNW,286,0.0,0.0,58,0.00,CLR,CLR,0.00,WeatherDisplay:10.34,2013-01-06 11:43:00,
2013-01-06 06:48:00,21.0,8.5,30.27,WNW,286,0.0,0.0,58,0.00,CLR,CLR,0.00,WeatherDisplay:10.34,2013-01-06 11:48:00,
2013-01-06 06:53:00,21.0,8.5,30.27,WNW,286,0.0,0.0,58,0.00,CLR,CLR,0.00,WeatherDisplay:10.34,2013-01-06 11:53:00,
2013-01-06 06:58:00,20.7,8.2,30.27,WNW,286,0.0,0.0,58,0.00,CLR,CLR,0.00,WeatherDisplay:10.34,2013-01-06 11:58:00,
2013-01-06 07:03:00,20.7,8.6,30.27,WNW,286,0.0,0.0,59,0.00,CLR,CLR,0.00,WeatherDisplay:10.34,2013-01-06 12:03:00,
2013-01-06 07:08:00,20.8,8.7,30.24,WNW,286,0.0,0.0,59,0.00,CLR,CLR,0.00,WeatherDisplay:10.34,2013-01-06 12:08:00,
2013-01-06 07:13:00,20.8,9.1,30.24,WNW,286,0.0,0.0,60,0.00,CLR,CLR,0.00,WeatherDisplay:10.34,2013-01-06 12:13:00,
2013-01-06 07:18:00,20.8,9.1,30.24,WNW,286,0.0,0.0,60,0.00,CLR,CLR,0.00,WeatherDisplay:10.34,2013-01-06 12:18:00,
2013-01-06 07:23:00,21.0,9.3,30.24,WNW,286,0.0,0.0,60,0.00,CLR,CLR,0.00,WeatherDisplay:10.34,2013-01-06 12:23:00,
2013-01-06 07:28:00,21.2,9.8,30.24,WNW,286,0.0,0.0,61,0.00,CLR,CLR,0.00,WeatherDisplay:10.34,2013-01-06 12:28:00,
2013-01-06 07:33:00,21.2,9.8,30.24,WNW,286,0.0,0.0,61,0.00,CLR,CLR,0.00,WeatherDisplay:10.34,2013-01-06 12:33:00,
2013-01-06 07:38:00,21.0,9.7,30.24,WNW,286,0.0,0.0,61,0.00,CLR,CLR,0.00,WeatherDisplay:10.34,2013-01-06 12:38:00,
2013-01-06 07:43:00,21.0,9.7,30.24,WNW,286,0.0,0.0,61,0.00,CLR,CLR,0.00,WeatherDisplay:10.34,2013-01-06 12:43:00,
2013-01-06 07:48:00,21.0,9.7,30.24,WNW,286,0.0,0.0,61,0.00,CLR,CLR,0.00,WeatherDisplay:10.34,2013-01-06 12:48:00,
2013-01-06 07:53:00,20.8,9.5,30.24,WNW,286,0.0,0.0,61,0.00,CLR,CLR,0.00,WeatherDisplay:10.34,2013-01-06 12:53:00,
2013-01-06 07:58:00,20.8,9.5,30.24,WNW,286,0.0,0.0,61,0.00,CLR,CLR,0.00,WeatherDisplay:10.34,2013-01-06 12:58:00,
2013-01-06 08:03:00,21.0,9.7,30.24,WNW,286,0.0,0.0,61,0.00,CLR,CLR,0.00,WeatherDisplay:10.34,2013-01-06 13:03:00,
2013-01-06 08:08:00,21.2,10.2,30.24,WNW,286,0.0,0.0,62,0.00,CLR,CLR,0.00,WeatherDisplay:10.34,2013-01-06 13:08:00,
2013-01-06 08:13:00,21.4,10.4,30.24,WNW,286,0.0,0.0,62,0.00,CLR,CLR,0.00,WeatherDisplay:10.34,2013-01-06 13:13:00,
2013-01-06 08:18:00,21.6,10.9,30.24,WNW,286,0.0,0.0,63,0.00,CLR,CLR,0.00,WeatherDisplay:10.34,2013-01-06 13:18:00,
2013-01-06 08:23:00,21.7,11.1,30.21,WNW,286,0.0,0.0,63,0.00,CLR,CLR,0.00,WeatherDisplay:10.34,2013-01-06 13:23:00,
2013-01-06 08:28:00,22.1,11.4,30.21,WNW,286,0.0,0.0,63,0.00,CLR,CLR,0.00,WeatherDisplay:10.34,2013-01-06 13:28:00,
2013-01-06 08:33:00,22.1,11.4,30.21,WNW,286,0.0,0.0,63,0.00,CLR,CLR,0.00,WeatherDisplay:10.34,2013-01-06 13:33:00,
2013-01-06 08:38:00,22.3,11.6,30.21,WNW,286,0.0,0.0,63,0.00,CLR,CLR,0.00,WeatherDisplay:10.34,2013-01-06 13:38:00,
2013-01-06 08:43:00,22.3,11.6,30.21,WNW,286,0.0,0.0,63,0.00,CLR,CLR,0.00,WeatherDisplay:10.34,2013-01-06 13:43:00,
2013-01-06 08:48:00,22.5,12.1,30.21,WNW,286,0.0,2.0,64,0.00,CLR,CLR,0.00,WeatherDisplay:10.34,2013-01-06 13:48:00,
2013-01-06 08:53:00,22.5,12.1,30.21,WNW,286,0.0,3.0,64,0.00,CLR,CLR,0.00,WeatherDisplay:10.34,2013-01-06 13:53:00,
2013-01-06 08:58:00,22.6,12.3,30.21,WNW,286,0.0,0.0,64,0.00,CLR,CLR,0.00,WeatherDisplay:10.34,2013-01-06 13:58:00,
2013-01-06 09:03:00,22.8,12.8,30.21,WNW,286,0.0,2.0,65,0.00,CLR,CLR,0.00,WeatherDisplay:10.34,2013-01-06 14:03:00,
2013-01-06 09:08:00,22.8,12.5,30.21,WNW,286,4.0,5.0,64,0.00,CLR,CLR,0.00,WeatherDisplay:10.34,2013-01-06 14:08:00,
2013-01-06 09:13:00,22.8,12.8,30.21,WNW,286,0.0,0.0,65,0.00,CLR,CLR,0.00,WeatherDisplay:10.34,2013-01-06 14:13:00,
2013-01-06 09:19:00,23.2,13.1,30.21,WNW,286,0.0,0.0,65,0.00,CLR,CLR,0.00,WeatherDisplay:10.34,2013-01-06 14:19:00,
2013-01-06 09:24:00,23.5,13.8,30.21,WNW,286,0.0,0.0,66,0.00,CLR,CLR,0.00,WeatherDisplay:10.34,2013-01-06 14:24:00,
2013-01-06 09:29:00,23.9,14.2,30.21,WNW,286,4.0,4.0,66,0.00,CLR,CLR,0.00,WeatherDisplay:10.34,2013-01-06 14:29:00,
2013-01-06 09:34:00,24.3,14.5,30.21,WNW,286,0.0,0.0,66,0.00,CLR,CLR,0.00,WeatherDisplay:10.34,2013-01-06 14:34:00,
2013-01-06 09:39:00,24.6,14.9,30.21,WNW,286,0.0,0.0,66,0.00,CLR,CLR,0.00,WeatherDisplay:10.34,2013-01-06 14:39:00,
2013-01-06 09:44:00,24.8,14.7,30.21,WNW,286,3.0,5.0,65,0.00,CLR,CLR,0.00,WeatherDisplay:10.34,2013-01-06 14:44:00,
2013-01-06 09:49:00,25.0,14.5,30.21,NNW,344,0.0,3.0,64,0.00,CLR,CLR,0.00,WeatherDisplay:10.34,2013-01-06 14:49:00,
2013-01-06 09:54:00,25.2,14.3,30.21,NNW,334,0.0,3.0,63,0.00,CLR,CLR,0.00,WeatherDisplay:10.34,2013-01-06 14:54:00,
2013-01-06 09:59:00,25.2,14.3,30.21,NNE,17,5.0,6.0,63,0.00,CLR,CLR,0.00,WeatherDisplay:10.34,2013-01-06 14:59:00,
2013-01-06 10:04:00,25.3,14.1,30.21,NW,321,0.0,3.0,62,0.00,CLR,CLR,0.00,WeatherDisplay:10.34,2013-01-06 15:04:00,
2013-01-06 10:09:00,25.5,14.3,30.21,West,275,3.0,3.0,62,0.00,CLR,CLR,0.00,WeatherDisplay:10.34,2013-01-06 15:09:00,
2013-01-06 10:14:00,25.3,13.8,30.21,West,263,3.0,7.0,61,0.00,CLR,CLR,0.00,WeatherDisplay:10.34,2013-01-06 15:14:00,
2013-01-06 10:19:00,25.3,13.8,30.21,North,351,3.0,3.0,61,0.00,CLR,CLR,0.00,WeatherDisplay:10.34,2013-01-06 15:19:00,
2013-01-06 10:25:00,25.3,13.8,30.21,West,264,0.0,6.0,61,0.00,CLR,CLR,0.00,WeatherDisplay:10.34,2013-01-06 15:25:00,
2013-01-06 10:30:00,25.3,13.8,30.21,West,268,4.0,6.0,61,0.00,CLR,CLR,0.00,WeatherDisplay:10.34,2013-01-06 15:30:00,
2013-01-06 10:35:00,25.5,14.3,30.18,North,351,4.0,6.0,62,0.00,CLR,CLR,0.00,WeatherDisplay:10.34,2013-01-06 15:35:00,
2013-01-06 10:40:00,25.3,13.8,30.18,WSW,244,3.0,7.0,61,0.00,CLR,CLR,0.00,WeatherDisplay:10.34,2013-01-06 15:40:00,
2013-01-06 10:45:00,25.5,13.9,30.18,West,272,0.0,7.0,61,0.00,CLR,CLR,0.00,WeatherDisplay:10.34,2013-01-06 15:45:00,
2013-01-06 10:50:00,25.5,13.9,30.18,West,278,4.0,9.0,61,0.00,CLR,CLR,0.00,WeatherDisplay:10.34,2013-01-06 15:50:00,
2013-01-06 10:55:00,25.3,13.4,30.18,SW,221,4.0,7.0,60,0.00,CLR,CLR,0.00,WeatherDisplay:10.34,2013-01-06 15:55:00,
2013-01-06 11:00:00,25.3,13.4,30.18,WSW,238,5.0,8.0,60,0.00,CLR,CLR,0.00,WeatherDisplay:10.34,2013-01-06 16:00:00,
2013-01-06 11:05:00,25.5,13.9,30.18,WSW,242,5.0,5.0,61,0.00,CLR,CLR,0.00,WeatherDisplay:10.34,2013-01-06 16:05:00,
2013-01-06 11:10:00,25.7,14.1,30.18,West,277,5.0,10.0,61,0.00,CLR,CLR,0.00,WeatherDisplay:10.34,2013-01-06 16:10:00,
2013-01-06 11:15:00,26.1,14.1,30.18,WNW,283,3.0,5.0,60,0.00,CLR,CLR,0.00,WeatherDisplay:10.34,2013-01-06 16:15:00,
2013-01-06 11:20:00,26.2,14.2,30.15,WSW,248,5.0,7.0,60,0.00,CLR,CLR,0.00,WeatherDisplay:10.34,2013-01-06 16:20:00,
2013-01-06 11:26:00,26.4,14.0,30.15,WSW,248,3.0,3.0,59,0.00,CLR,CLR,0.00,WeatherDisplay:10.34,2013-01-06 16:26:00,
2013-01-06 11:31:00,26.6,14.2,30.15,North,6,4.0,4.0,59,0.00,CLR,CLR,0.00,WeatherDisplay:10.34,2013-01-06 16:31:00,
2013-01-06 11:36:00,26.6,14.2,30.15,NW,313,4.0,6.0,59,0.00,CLR,CLR,0.00,WeatherDisplay:10.34,2013-01-06 16:36:00,
2013-01-06 11:41:00,26.8,14.0,30.15,NNE,14,3.0,3.0,58,0.00,CLR,CLR,0.00,WeatherDisplay:10.34,2013-01-06 16:41:00,
2013-01-06 11:46:00,27.0,14.1,30.15,South,191,4.0,9.0,58,0.00,CLR,CLR,0.00,WeatherDisplay:10.34,2013-01-06 16:46:00,
2013-01-06 11:51:00,26.8,13.6,30.15,WSW,249,5.0,8.0,57,0.00,CLR,CLR,0.00,WeatherDisplay:10.34,2013-01-06 16:51:00,
2013-01-06 11:56:00,26.8,13.6,30.15,North,351,4.0,5.0,57,0.00,CLR,CLR,0.00,WeatherDisplay:10.34,2013-01-06 16:56:00,
2013-01-06 12:01:00,27.1,14.3,30.15,West,272,3.0,7.0,58,0.00,CLR,CLR,0.00,WeatherDisplay:10.34,2013-01-06 17:01:00,
2013-01-06 12:06:00,27.5,14.2,30.15,North,351,0.0,5.0,57,0.00,CLR,CLR,0.00,WeatherDisplay:10.34,2013-01-06 17:06:00,
2013-01-06 12:11:00,28.0,14.8,30.15,NW,319,0.0,0.0,57,0.00,CLR,CLR,0.00,WeatherDisplay:10.34,2013-01-06 17:11:00,
2013-01-06 12:16:00,28.4,14.7,30.14,North,351,4.0,7.0,56,0.00,CLR,CLR,0.00,WeatherDisplay:10.34,2013-01-06 17:16:00,
2013-01-06 12:21:00,28.4,14.3,30.11,SSW,210,4.0,9.0,55,0.00,CLR,CLR,0.00,WeatherDisplay:10.34,2013-01-06 17:21:00,
2013-01-06 12:26:00,28.4,14.3,30.11,West,263,5.0,7.0,55,0.00,CLR,CLR,0.00,WeatherDisplay:10.34,2013-01-06 17:26:00,
2013-01-06 12:31:00,28.4,14.3,30.11,SW,214,4.0,6.0,55,0.00,CLR,CLR,0.00,WeatherDisplay:10.34,2013-01-06 17:31:00,
2013-01-06 12:36:00,28.8,14.6,30.11,North,0,0.0,0.0,55,0.00,CLR,CLR,0.00,WeatherDisplay:10.34,2013-01-06 17:36:00,
2013-01-06 12:41:00,28.8,14.6,30.11,North,8,3.0,7.0,55,0.00,CLR,CLR,0.00,WeatherDisplay:10.34,2013-01-06 17:41:00,
2013-01-06 12:46:00,28.8,14.6,30.11,NNW,334,3.0,5.0,55,0.00,CLR,CLR,0.00,WeatherDisplay:10.34,2013-01-06 17:46:00,
2013-01-06 12:51:00,28.9,14.8,30.11,WNW,292,7.0,12.0,55,0.00,CLR,CLR,0.00,WeatherDisplay:10.34,2013-01-06 17:51:00,
2013-01-06 12:56:00,29.1,14.9,30.11,West,281,4.0,6.0,55,0.00,CLR,CLR,0.00,WeatherDisplay:10.34,2013-01-06 17:56:00,
2013-01-06 13:01:00,29.3,14.7,30.11,SW,233,4.0,6.0,54,0.00,CLR,CLR,0.00,WeatherDisplay:10.34,2013-01-06 18:01:00,
2013-01-06 13:06:00,28.9,14.4,30.11,WSW,244,3.0,5.0,54,0.00,CLR,CLR,0.00,WeatherDisplay:10.34,2013-01-06 18:06:00,
2013-01-06 13:11:00,28.8,14.2,30.11,WSW,250,3.0,6.0,54,0.00,CLR,CLR,0.00,WeatherDisplay:10.34,2013-01-06 18:11:00,
2013-01-06 13:16:00,28.6,14.0,30.11,West,259,3.0,3.0,54,0.00,CLR,CLR,0.00,WeatherDisplay:10.34,2013-01-06 18:16:00,
2013-01-06 13:21:00,28.6,14.0,30.11,WSW,251,4.0,8.0,54,0.00,CLR,CLR,0.00,WeatherDisplay:10.34,2013-01-06 18:21:00,
2013-01-06 13:26:00,28.4,13.9,30.11,WSW,240,6.0,7.0,54,0.00,CLR,CLR,0.00,WeatherDisplay:10.34,2013-01-06 18:26:00,
2013-01-06 13:31:00,28.2,14.1,30.11,West,272,5.0,8.0,55,0.00,CLR,CLR,0.00,WeatherDisplay:10.34,2013-01-06 18:31:00,
2013-01-06 13:36:00,28.0,13.9,30.11,West,271,4.0,8.0,55,0.00,CLR,CLR,0.00,WeatherDisplay:10.34,2013-01-06 18:36:00,
2013-01-06 13:41:00,28.0,13.9,30.11,SW,236,3.0,10.0,55,0.00,CLR,CLR,0.00,WeatherDisplay:10.34,2013-01-06 18:41:00,
2013-01-06 13:46:00,28.0,14.3,30.11,West,266,4.0,5.0,56,0.00,CLR,CLR,0.00,WeatherDisplay:10.34,2013-01-06 18:46:00,
2013-01-06 13:51:00,28.0,14.3,30.11,West,263,3.0,7.0,56,0.00,CLR,CLR,0.00,WeatherDisplay:10.34,2013-01-06 18:51:00,
2013-01-06 13:56:00,28.4,15.1,30.11,West,262,4.0,6.0,57,0.00,CLR,CLR,0.00,WeatherDisplay:10.34,2013-01-06 18:56:00,
2013-01-06 14:01:00,28.6,15.3,30.11,West,278,4.0,5.0,57,0.00,CLR,CLR,0.00,WeatherDisplay:10.34,2013-01-06 19:01:00,
2013-01-06 14:06:00,28.9,15.6,30.11,WSW,248,4.0,7.0,57,0.00,CLR,CLR,0.00,WeatherDisplay:10.34,2013-01-06 19:06:00,
2013-01-06 14:11:00,29.3,15.5,30.11,North,5,5.0,5.0,56,0.00,CLR,CLR,0.00,WeatherDisplay:10.34,2013-01-06 19:11:00,
2013-01-06 14:16:00,29.5,15.7,30.11,WNW,293,4.0,9.0,56,0.00,CLR,CLR,0.00,WeatherDisplay:10.34,2013-01-06 19:16:00,
2013-01-06 14:21:00,29.7,15.9,30.11,WSW,256,5.0,9.0,56,0.00,CLR,CLR,0.00,WeatherDisplay:10.34,2013-01-06 19:21:00,
2013-01-06 14:26:00,29.7,15.9,30.11,SSW,204,3.0,7.0,56,0.00,CLR,CLR,0.00,WeatherDisplay:10.34,2013-01-06 19:26:00,
2013-01-06 14:31:00,29.5,15.3,30.11,WSW,255,5.0,7.0,55,0.00,CLR,CLR,0.00,WeatherDisplay:10.34,2013-01-06 19:31:00,
2013-01-06 14:36:00,29.3,15.5,30.11,SSW,206,4.0,8.0,56,0.00,CLR,CLR,0.00,WeatherDisplay:10.34,2013-01-06 19:36:00,
2013-01-06 14:41:00,28.9,15.2,30.11,West,280,3.0,5.0,56,0.00,CLR,CLR,0.00,WeatherDisplay:10.34,2013-01-06 19:41:00,
2013-01-06 14:46:00,28.9,15.6,30.11,WNW,289,3.0,6.0,57,0.00,CLR,CLR,0.00,WeatherDisplay:10.34,2013-01-06 19:46:00,
2013-01-06 14:53:00,29.1,15.8,30.11,NW,308,4.0,6.0,57,0.00,CLR,CLR,0.00,WeatherDisplay:10.34,2013-01-06 19:53:00,
2013-01-06 14:59:00,29.3,15.9,30.11,West,268,3.0,7.0,57,0.00,CLR,CLR,0.00,WeatherDisplay:10.34,2013-01-06 19:59:00,
2013-01-06 15:04:00,29.7,16.3,30.11,SSW,208,0.0,3.0,57,0.00,CLR,CLR,0.00,WeatherDisplay:10.34,2013-01-06 20:04:00,
2013-01-06 15:11:00,29.7,16.3,30.11,WSW,256,0.0,0.0,57,0.00,CLR,CLR,0.00,WeatherDisplay:10.34,2013-01-06 20:11:00,
2013-01-06 15:13:00,29.7,16.3,30.11,WSW,250,0.0,3.0,57,0.00,CLR,CLR,0.00,WeatherDisplay:10.34,2013-01-06 20:13:00,
2013-01-06 15:18:00,29.7,16.3,30.11,WSW,250,0.0,0.0,57,0.00,CLR,CLR,0.00,WeatherDisplay:10.34,2013-01-06 20:18:00,
2013-01-06 15:19:00,29.7,16.3,30.11,WSW,250,0.0,0.0,57,0.00,CLR,CLR,0.00,WeatherDisplay:10.34,2013-01-06 20:19:00,
2013-01-06 15:24:00,29.5,16.1,30.11,West,276,0.0,0.0,57,0.00,CLR,CLR,0.00,WeatherDisplay:10.34,2013-01-06 20:24:00,
2013-01-06 15:29:00,29.5,16.1,30.11,West,275,0.0,3.0,57,0.00,CLR,CLR,0.00,WeatherDisplay:10.34,2013-01-06 20:29:00,
2013-01-06 15:34:00,29.3,15.9,30.11,West,272,0.0,3.0,57,0.00,CLR,CLR,0.00,WeatherDisplay:10.34,2013-01-06 20:34:00,
2013-01-06 15:39:00,28.9,15.6,30.11,West,266,4.0,6.0,57,0.00,CLR,CLR,0.00,WeatherDisplay:10.34,2013-01-06 20:39:00,
2013-01-06 15:44:00,28.6,15.3,30.11,West,263,3.0,3.0,57,0.00,CLR,CLR,0.00,WeatherDisplay:10.34,2013-01-06 20:44:00,
2013-01-06 15:50:00,28.6,15.7,30.11,West,264,0.0,0.0,58,0.00,CLR,CLR,0.00,WeatherDisplay:10.34,2013-01-06 20:50:00,
2013-01-06 15:55:00,28.4,15.5,30.11,West,264,0.0,3.0,58,0.00,CLR,CLR,0.00,WeatherDisplay:10.34,2013-01-06 20:55:00,
2013-01-06 16:00:00,28.4,15.9,30.11,WNW,293,0.0,0.0,59,0.00,CLR,CLR,0.00,WeatherDisplay:10.34,2013-01-06 21:00:00,
2013-01-06 16:05:00,28.2,15.7,30.11,West,280,3.0,5.0,59,0.00,CLR,CLR,0.00,WeatherDisplay:10.34,2013-01-06 21:05:00,
2013-01-06 16:07:00,28.2,15.7,30.11,WSW,245,0.0,2.0,59,0.00,CLR,CLR,0.00,WeatherDisplay:10.34,2013-01-06 21:07:00,
2013-01-06 16:12:00,28.0,15.5,30.11,WNW,295,3.0,5.0,59,0.00,CLR,CLR,0.00,WeatherDisplay:10.34,2013-01-06 21:12:00,
2013-01-06 16:17:00,28.0,15.9,30.11,WNW,282,0.0,0.0,60,0.00,CLR,CLR,0.00,WeatherDisplay:10.34,2013-01-06 21:17:00,
2013-01-06 16:22:00,27.9,15.8,30.11,WNW,282,0.0,2.0,60,0.00,CLR,CLR,0.00,WeatherDisplay:10.34,2013-01-06 21:22:00,
2013-01-06 16:27:00,27.9,16.1,30.11,WSW,254,0.0,0.0,61,0.00,CLR,CLR,0.00,WeatherDisplay:10.34,2013-01-06 21:27:00,
2013-01-06 16:32:00,27.9,16.1,30.11,WSW,254,0.0,6.0,61,0.00,CLR,CLR,0.00,WeatherDisplay:10.34,2013-01-06 21:32:00,
2013-01-06 16:37:00,27.7,16.0,30.11,WSW,254,0.0,0.0,61,0.00,CLR,CLR,0.00,WeatherDisplay:10.34,2013-01-06 21:37:00,
2013-01-06 16:42:00,27.7,16.0,30.11,WSW,254,0.0,2.0,61,0.00,CLR,CLR,0.00,WeatherDisplay:10.34,2013-01-06 21:42:00,
2013-01-06 16:47:00,27.5,15.8,30.11,WSW,254,0.0,0.0,61,0.00,CLR,CLR,0.00,WeatherDisplay:10.34,2013-01-06 21:47:00,
2013-01-06 16:52:00,27.3,15.6,30.11,WSW,254,0.0,0.0,61,0.00,CLR,CLR,0.00,WeatherDisplay:10.34,2013-01-06 21:52:00,
2013-01-06 16:57:00,27.3,16.0,30.11,WSW,254,3.0,5.0,62,0.00,CLR,CLR,0.00,WeatherDisplay:10.34,2013-01-06 21:57:00,
2013-01-06 17:02:00,27.5,16.2,30.11,WSW,254,0.0,0.0,62,0.00,CLR,CLR,0.00,WeatherDisplay:10.34,2013-01-06 22:02:00,
2013-01-06 17:07:00,27.5,16.2,30.11,WSW,254,0.0,2.0,62,0.00,CLR,CLR,0.00,WeatherDisplay:10.34,2013-01-06 22:07:00,
2013-01-06 17:12:00,27.5,16.2,30.11,WSW,254,3.0,3.0,62,0.00,CLR,CLR,0.00,WeatherDisplay:10.34,2013-01-06 22:12:00,
2013-01-06 17:17:00,27.7,16.3,30.11,WSW,254,0.0,0.0,62,0.00,CLR,CLR,0.00,WeatherDisplay:10.34,2013-01-06 22:17:00,
2013-01-06 17:22:00,27.5,16.5,30.11,WSW,254,0.0,0.0,63,0.00,CLR,CLR,0.00,WeatherDisplay:10.34,2013-01-06 22:22:00,
2013-01-06 17:27:00,27.5,16.5,30.11,WSW,254,0.0,0.0,63,0.00,CLR,CLR,0.00,WeatherDisplay:10.34,2013-01-06 22:27:00,
2013-01-06 17:32:00,27.5,16.9,30.11,WSW,253,0.0,0.0,64,0.00,CLR,CLR,0.00,WeatherDisplay:10.34,2013-01-06 22:32:00,
2013-01-06 17:37:00,27.5,16.9,30.11,WSW,254,0.0,0.0,64,0.00,CLR,CLR,0.00,WeatherDisplay:10.34,2013-01-06 22:37:00,
2013-01-06 17:42:00,27.5,17.3,30.11,WSW,254,0.0,0.0,65,0.00,CLR,CLR,0.00,WeatherDisplay:10.34,2013-01-06 22:42:00,
2013-01-06 17:47:00,27.7,17.4,30.11,WSW,254,0.0,0.0,65,0.00,CLR,CLR,0.00,WeatherDisplay:10.34,2013-01-06 22:47:00,
2013-01-06 17:53:00,27.7,17.8,30.11,WSW,253,0.0,0.0,66,0.00,CLR,CLR,0.00,WeatherDisplay:10.34,2013-01-06 22:53:00,
2013-01-06 17:58:00,27.7,17.8,30.11,WSW,254,0.0,0.0,66,0.00,CLR,CLR,0.00,WeatherDisplay:10.34,2013-01-06 22:58:00,
2013-01-06 18:03:00,27.7,17.8,30.11,WSW,254,0.0,0.0,66,0.00,CLR,CLR,0.00,WeatherDisplay:10.34,2013-01-06 23:03:00,
2013-01-06 18:08:00,27.7,17.8,30.11,WSW,254,0.0,0.0,66,0.00,CLR,CLR,0.00,WeatherDisplay:10.34,2013-01-06 23:08:00,
2013-01-06 18:13:00,27.7,18.1,30.11,WSW,254,0.0,0.0,67,0.00,CLR,CLR,0.00,WeatherDisplay:10.34,2013-01-06 23:13:00,
2013-01-06 18:18:00,27.5,18.0,30.11,WSW,254,0.0,0.0,67,0.00,CLR,CLR,0.00,WeatherDisplay:10.34,2013-01-06 23:18:00,
2013-01-06 18:24:00,27.5,18.3,30.11,WSW,254,0.0,0.0,68,0.00,CLR,CLR,0.00,WeatherDisplay:10.34,2013-01-06 23:24:00,
2013-01-06 18:30:00,27.5,18.7,30.11,WSW,254,0.0,0.0,69,0.00,CLR,CLR,0.00,WeatherDisplay:10.34,2013-01-06 23:30:00,
2013-01-06 18:35:00,27.5,18.7,30.11,WSW,254,0.0,0.0,69,0.00,CLR,CLR,0.00,WeatherDisplay:10.34,2013-01-06 23:35:00,
2013-01-06 18:40:00,27.5,18.7,30.11,WSW,254,0.0,0.0,69,0.00,CLR,CLR,0.00,WeatherDisplay:10.34,2013-01-06 23:40:00,
2013-01-06 18:45:00,27.5,19.0,30.11,WSW,253,0.0,0.0,70,0.00,CLR,CLR,0.00,WeatherDisplay:10.34,2013-01-06 23:45:00,
2013-01-06 18:50:00,27.5,19.0,30.11,WSW,254,0.0,0.0,70,0.00,CLR,CLR,0.00,WeatherDisplay:10.34,2013-01-06 23:50:00,
2013-01-06 18:55:00,27.5,19.0,30.11,WSW,254,0.0,0.0,70,0.00,CLR,CLR,0.00,WeatherDisplay:10.34,2013-01-06 23:55:00,
2013-01-06 19:00:00,27.5,19.3,30.11,WSW,254,0.0,0.0,71,0.00,CLR,CLR,0.00,WeatherDisplay:10.34,2013-01-07 00:00:00,
2013-01-06 19:05:00,27.5,19.3,30.11,WSW,254,0.0,0.0,71,0.00,CLR,CLR,0.00,WeatherDisplay:10.34,2013-01-07 00:05:00,
2013-01-06 19:11:00,27.5,19.3,30.11,WSW,254,0.0,0.0,71,0.00,CLR,CLR,0.00,WeatherDisplay:10.34,2013-01-07 00:11:00,
2013-01-06 19:16:00,27.7,19.5,30.11,WSW,253,0.0,0.0,71,0.00,CLR,CLR,0.00,WeatherDisplay:10.34,2013-01-07 00:16:00,
2013-01-06 19:21:00,27.7,19.8,30.14,WSW,254,0.0,0.0,72,0.00,CLR,CLR,0.00,WeatherDisplay:10.34,2013-01-07 00:21:00,
2013-01-06 19:26:00,27.7,19.8,30.14,WSW,254,0.0,0.0,72,0.00,CLR,CLR,0.00,WeatherDisplay:10.34,2013-01-07 00:26:00,
2013-01-06 19:31:00,27.9,20.0,30.14,WSW,254,0.0,0.0,72,0.00,CLR,CLR,0.00,WeatherDisplay:10.34,2013-01-07 00:31:00,
2013-01-06 19:36:00,27.9,20.0,30.14,WSW,253,0.0,0.0,72,0.00,CLR,CLR,0.00,WeatherDisplay:10.34,2013-01-07 00:36:00,
2013-01-06 19:41:00,27.9,20.0,30.14,WSW,253,0.0,0.0,72,0.00,CLR,CLR,0.00,WeatherDisplay:10.34,2013-01-07 00:41:00,
2013-01-06 19:46:00,28.0,20.5,30.14,WSW,254,0.0,0.0,73,0.00,CLR,CLR,0.00,WeatherDisplay:10.34,2013-01-07 00:46:00,
2013-01-06 19:51:00,28.0,20.5,30.14,WSW,254,0.0,0.0,73,0.00,CLR,CLR,0.00,WeatherDisplay:10.34,2013-01-07 00:51:00,
2013-01-06 19:56:00,28.0,20.5,30.14,WSW,254,0.0,0.0,73,0.00,CLR,CLR,0.00,WeatherDisplay:10.34,2013-01-07 00:56:00,
2013-01-06 20:01:00,28.0,20.5,30.14,WSW,254,0.0,0.0,73,0.00,CLR,CLR,0.00,WeatherDisplay:10.34,2013-01-07 01:01:00,
2013-01-06 20:06:00,28.2,21.0,30.14,WSW,253,0.0,0.0,74,0.00,CLR,CLR,0.00,WeatherDisplay:10.34,2013-01-07 01:06:00,
2013-01-06 20:11:00,28.2,21.0,30.14,WSW,253,0.0,0.0,74,0.00,CLR,CLR,0.00,WeatherDisplay:10.34,2013-01-07 01:11:00,
2013-01-06 20:16:00,28.2,21.0,30.14,WSW,254,0.0,3.0,74,0.00,CLR,CLR,0.00,WeatherDisplay:10.34,2013-01-07 01:16:00,
2013-01-06 20:21:00,28.2,21.0,30.14,WSW,254,0.0,0.0,74,0.00,CLR,CLR,0.00,WeatherDisplay:10.34,2013-01-07 01:21:00,
2013-01-06 20:26:00,28.2,21.0,30.14,WSW,254,0.0,0.0,74,0.00,CLR,CLR,0.00,WeatherDisplay:10.34,2013-01-07 01:26:00,
2013-01-06 20:31:00,28.2,21.0,30.14,WSW,254,0.0,0.0,74,0.00,CLR,CLR,0.00,WeatherDisplay:10.34,2013-01-07 01:31:00,
2013-01-06 20:36:00,28.2,21.3,30.11,WSW,254,0.0,3.0,75,0.00,CLR,CLR,0.00,WeatherDisplay:10.34,2013-01-07 01:36:00,
2013-01-06 20:41:00,28.0,21.1,30.11,WSW,254,3.0,5.0,75,0.00,CLR,CLR,0.00,WeatherDisplay:10.34,2013-01-07 01:41:00,
2013-01-06 20:46:00,28.2,21.3,30.11,WSW,254,0.0,2.0,75,0.00,CLR,CLR,0.00,WeatherDisplay:10.34,2013-01-07 01:46:00,
2013-01-06 20:51:00,28.2,21.3,30.11,WSW,254,0.0,0.0,75,0.00,CLR,CLR,0.00,WeatherDisplay:10.34,2013-01-07 01:51:00,
2013-01-06 20:56:00,28.2,21.3,30.11,WSW,254,0.0,0.0,75,0.00,CLR,CLR,0.00,WeatherDisplay:10.34,2013-01-07 01:56:00,
2013-01-06 21:01:00,28.2,21.6,30.11,WSW,254,0.0,0.0,76,0.00,CLR,CLR,0.00,WeatherDisplay:10.34,2013-01-07 02:01:00,
2013-01-06 21:06:00,28.0,21.4,30.11,WSW,253,0.0,0.0,76,0.00,CLR,CLR,0.00,WeatherDisplay:10.34,2013-01-07 02:06:00,
2013-01-06 21:11:00,28.0,21.4,30.11,WSW,253,0.0,3.0,76,0.00,CLR,CLR,0.00,WeatherDisplay:10.34,2013-01-07 02:11:00,
2013-01-06 21:16:00,27.9,21.3,30.11,WSW,254,0.0,0.0,76,0.00,CLR,CLR,0.00,WeatherDisplay:10.34,2013-01-07 02:16:00,
2013-01-06 21:21:00,27.9,21.3,30.11,WSW,254,0.0,0.0,76,0.00,CLR,CLR,0.00,WeatherDisplay:10.34,2013-01-07 02:21:00,
2013-01-06 21:26:00,28.0,21.4,30.11,WSW,249,3.0,3.0,76,0.00,CLR,CLR,0.00,WeatherDisplay:10.34,2013-01-07 02:26:00,
2013-01-06 21:31:00,28.0,21.4,30.11,WSW,249,0.0,3.0,76,0.00,CLR,CLR,0.00,WeatherDisplay:10.34,2013-01-07 02:31:00,
2013-01-06 21:37:00,28.0,21.4,30.11,WSW,249,0.0,2.0,76,0.00,CLR,CLR,0.00,WeatherDisplay:10.34,2013-01-07 02:37:00,
2013-01-06 21:42:00,28.0,21.4,30.11,WSW,249,3.0,5.0,76,0.00,CLR,CLR,0.00,WeatherDisplay:10.34,2013-01-07 02:42:00,
2013-01-06 21:47:00,27.9,21.3,30.11,WSW,249,0.0,2.0,76,0.00,CLR,CLR,0.00,WeatherDisplay:10.34,2013-01-07 02:47:00,
2013-01-06 21:52:00,27.9,21.3,30.11,WSW,249,0.0,3.0,76,0.00,CLR,CLR,0.00,WeatherDisplay:10.34,2013-01-07 02:52:00,
2013-01-06 21:57:00,27.9,21.3,30.11,WSW,249,0.0,0.0,76,0.00,CLR,CLR,0.00,WeatherDisplay:10.34,2013-01-07 02:57:00,
2013-01-06 22:02:00,28.0,21.8,30.11,WSW,249,0.0,2.0,77,0.00,CLR,CLR,0.00,WeatherDisplay:10.34,2013-01-07 03:02:00,
2013-01-06 22:07:00,28.0,21.8,30.11,WSW,249,0.0,3.0,77,0.00,CLR,CLR,0.00,WeatherDisplay:10.34,2013-01-07 03:07:00,
2013-01-06 22:12:00,28.0,21.8,30.10,West,260,3.0,3.0,77,0.00,CLR,CLR,0.00,WeatherDisplay:10.34,2013-01-07 03:12:00,
2013-01-06 22:17:00,28.0,21.8,30.11,West,261,0.0,3.0,77,0.00,CLR,CLR,0.00,WeatherDisplay:10.34,2013-01-07 03:17:00,
2013-01-06 22:22:00,28.0,21.8,30.11,West,279,0.0,2.0,77,0.00,CLR,CLR,0.00,WeatherDisplay:10.34,2013-01-07 03:22:00,
2013-01-06 22:27:00,28.2,21.9,30.10,West,278,0.0,0.0,77,0.00,CLR,CLR,0.00,WeatherDisplay:10.34,2013-01-07 03:27:00,
2013-01-06 22:32:00,28.2,22.2,30.10,WNW,293,0.0,0.0,78,0.00,CLR,CLR,0.00,WeatherDisplay:10.34,2013-01-07 03:32:00,
2013-01-06 22:37:00,28.4,22.4,30.10,WNW,293,0.0,0.0,78,0.00,CLR,CLR,0.00,WeatherDisplay:10.34,2013-01-07 03:37:00,
2013-01-06 22:42:00,28.2,22.2,30.10,WSW,258,4.0,6.0,78,0.00,CLR,CLR,0.00,WeatherDisplay:10.34,2013-01-07 03:42:00,
2013-01-06 22:47:00,28.0,21.8,30.10,WSW,258,0.0,3.0,77,0.00,CLR,CLR,0.00,WeatherDisplay:10.34,2013-01-07 03:47:00,
2013-01-06 22:52:00,28.0,21.8,30.10,WSW,257,3.0,5.0,77,0.00,CLR,CLR,0.00,WeatherDisplay:10.34,2013-01-07 03:52:00,
2013-01-06 22:57:00,28.0,21.8,30.11,WSW,243,0.0,5.0,77,0.00,CLR,CLR,0.00,WeatherDisplay:10.34,2013-01-07 03:57:00,
2013-01-06 23:03:00,28.0,22.1,30.10,WSW,245,3.0,6.0,78,0.00,CLR,CLR,0.00,WeatherDisplay:10.34,2013-01-07 04:03:00,
2013-01-06 23:08:00,27.9,21.9,30.11,WSW,237,4.0,6.0,78,0.00,CLR,CLR,0.00,WeatherDisplay:10.34,2013-01-07 04:08:00,
2013-01-06 23:13:00,27.9,21.9,30.10,SW,231,3.0,6.0,78,0.00,CLR,CLR,0.00,WeatherDisplay:10.34,2013-01-07 04:13:00,
2013-01-06 23:18:00,27.9,22.2,30.10,WSW,252,0.0,6.0,79,0.00,CLR,CLR,0.00,WeatherDisplay:10.34,2013-01-07 04:18:00,
2013-01-06 23:23:00,27.9,22.2,30.10,WSW,258,0.0,0.0,79,0.00,CLR,CLR,0.00,WeatherDisplay:10.34,2013-01-07 04:23:00,
2013-01-06 23:28:00,27.9,22.2,30.10,WSW,258,0.0,0.0,79,0.00,CLR,CLR,0.00,WeatherDisplay:10.34,2013-01-07 04:28:00,
2013-01-06 23:34:00,27.7,22.0,30.10,WSW,258,0.0,0.0,79,0.00,CLR,CLR,0.00,WeatherDisplay:10.34,2013-01-07 04:34:00,
2013-01-06 23:39:00,27.5,22.1,30.10,WSW,258,0.0,0.0,80,0.00,CLR,CLR,0.00,WeatherDisplay:10.34,2013-01-07 04:39:00,
2013-01-06 23:44:00,27.3,22.0,30.10,WSW,258,0.0,0.0,80,0.00,CLR,CLR,0.00,WeatherDisplay:10.34,2013-01-07 04:44:00,
2013-01-06 23:49:00,27.1,21.5,30.10,WSW,258,0.0,2.0,79,0.00,CLR,CLR,0.00,WeatherDisplay:10.34,2013-01-07 04:49:00,
2013-01-06 23:54:00,27.1,21.5,30.10,WSW,256,0.0,0.0,79,0.00,CLR,CLR,0.00,WeatherDisplay:10.34,2013-01-07 04:54:00,
2013-01-06 23:59:00,26.8,21.1,30.10,WSW,256,0.0,2.0,79,0.00,CLR,CLR,0.00,WeatherDisplay:10.34,2013-01-07 04:59:00,